Regional Weather Roundup
Issued by NWS Cleveland, OH

Home | Current Version | Previous Version | Graphics & Text | Print | Product List | Glossary On
Versions: 1 2 3 4 5 6 7 8 9 10 11 12 13 14 15 16 17 18 19 20 21 22 23 24 25 26 27 28 29 30 31 32 33 34 35 36 37 38 39 40 41 42 43 44 45 46 47 48 49 50
000
ASUS41 KCLE 301700
RWRCLE
OHIO REGIONAL WEATHER ROUNDUP
NATIONAL WEATHER SERVICE WILMINGTON, OH
100 PM EDT THU MAR 30 2017

NOTE: "FAIR" INDICATES FEW OR NO CLOUDS BELOW 12,000 FEET WITH NO
SIGNIFICANT WEATHER AND/OR OBSTRUCTIONS TO VISIBILITY.

OHZ001>008-015>018-024>027-034-035-043-044-301800-
   NORTHWEST OHIO

CITY           SKY/WX    TMP DP  RH WIND       PRES   REMARKS
DEFIANCE       PTSUNNY   42  38  85 E15G25    29.83F
FINDLAY        PTSUNNY   46  41  82 E17G29    29.80F
TOLEDO EXPRESS CLOUDY    39  38  96 E20G29    29.87F
TOLEDO EXEC    CLOUDY    41  39  93 E16G24    29.89F
LIMA           FAIR      49  46  90 E22       29.77F
$$

OHZ009>014-019>023-028>033-038-089-301800-
   NORTHEAST OHIO

CITY           SKY/WX    TMP DP  RH WIND       PRES   REMARKS
CLE-HOPKINS    CLOUDY    46  37  71 E12       29.94S
CLE-LAKEFRONT  LGT RAIN  45  37  73 E12       29.92S
CUY CO. ARPT   CLOUDY    45  39  81 SE14G23   29.93S
LORAIN-ELYRIA  HVY RAIN  45  38  76 NE8       29.93R
ASHTABULA        N/A    N/A N/A N/A MISG      29.97F
AKRON-CANTON   CLOUDY    48  37  65 E15G24    29.89F
WOOSTER        NOT AVBL
MANSFIELD      LGT RAIN  51  40  65 N3        29.89R
YOUNGSTOWN     LGT RAIN  40  35  83 E18G29    29.93F
$$

OHZ042-051>053-060>062-070>072-077>081-301800-
  SOUTHWEST OHIO

CITY           SKY/WX    TMP DP  RH WIND       PRES   REMARKS
CINC-COVINGTON CLOUDY    73  56  54 S17G25    29.70F
CINC-LUNKEN    FAIR      72  58  61 S14       29.71F
HAMILTON       FAIR      73  56  54 VRB5      29.71F
DAYTON         NOT AVBL
WRIGHT-PAT AFB NOT AVBL
DAYTON GENERAL PTSUNNY   70  55  59 S16       29.72F
WILMINGTON     FAIR      70  57  63 S15       29.74F
$$

OHZ036-037-039>041-045>050-054>059-063>069-073>076-082>088-301800-
  CENTRAL AND SOUTHEAST OHIO

CITY           SKY/WX    TMP DP  RH WIND       PRES   REMARKS
COLUMBUS       PTSUNNY   64  49  57 SE12      29.79F
OSU AIRPORT    FAIR      64  50  60 SE12      29.78F
BOLTON FIELD   SUNNY     64  52  63 S9        29.79F
RICKENBACK AFB NOT AVBL
NEWARK         FAIR      62  48  60 SE8       29.80F
MARION         PTSUNNY   55  47  74 NE13      29.82F
LANCASTER      PTSUNNY   66  51  58 SE12      29.79F
ZANESVILLE     PTSUNNY   61  49  64 S9        29.84F
NEW PHILLY     PTSUNNY   53  44  71 MISG      29.89F
$$



USA.gov is the U.S. government's official web portal to all federal, state and local government web resources and services.